Regional Weather Roundup
Issued by NWS

Home | Current Version | Previous Version | Graphics & Text | Print | Product List | Glossary On
Versions: 1 2 3 4 5 6 7 8 9 10 11 12 13 14 15 16 17 18 19 20 21 22 23 24 25 26 27 28 29 30 31 32 33 34 35 36 37 38 39 40 41 42 43 44 45 46 47 48 49 50
000
ASUS43 KOAX 242302
RWRNE

WEATHER ROUNDUP FOR NEBRASKA
NATIONAL WEATHER SERVICE OMAHA NE
600 PM CDT SUN JUL 24 2016

NOTES: SATELLITE DATA IS BEING USED TO AUGMENT CLOUD COVER ABOVE
       12000 FEET.
       "FAIR" INDICATES FEW OR NO CLOUDS BELOW 12,000 FEET WITH NO
       SIGNIFICANT WEATHER AND/OR OBSTRUCTIONS TO VISIBILITY.

  * THESE STATIONS DO NOT REPORT WEATHER SUCH AS RAIN...SNOW OR FOG.

NEZ001>004-019>022-054>056-250000-
NEBRASKA PANHANDLE

CITY           SKY/WX    TMP DP  RH WIND       PRES   REMARKS
SCOTTSBLUFF    CLOUDY    82  53  36 E17G25    30.09S
ALLIANCE       CLOUDY    78  53  41 SE9       30.14F
CHADRON        SUNNY     89  45  21 SE7       30.08F
SIDNEY         LGT RAIN  79  54  41 NE14      30.20R
$$

NEZ057>060-069>072-079>082-250000-
SOUTHWEST NEBRASKA

CITY           SKY/WX    TMP DP  RH WIND       PRES   REMARKS
NORTH PLATTE   SUNNY     84  60  44 E14       30.08F
IMPERIAL       SUNNY     87  57  35 E16       30.07F
LEXINGTON      SUNNY     85  57  38 E12       30.07S
MCCOOK         SUNNY     88  59  37 E15       30.04S
OGALLALA       SUNNY     85  50  29 E14       30.11R
$$

NEZ005>010-023>029-035>040-094-250000-
NORTH CENTRAL NEBRASKA

CITY           SKY/WX    TMP DP  RH WIND       PRES   REMARKS
VALENTINE      SUNNY     87  48  25 E9        30.08F
AINSWORTH      CLOUDY    83  57  41 E5        30.09F
BROKEN BOW     SUNNY     81  60  48 E13       30.09S
O`NEILL        SUNNY     82  54  38 E5        30.08F
ORD            SUNNY     83  61  47 E9        30.06S
THEDFORD       SUNNY     87  54  32 E13       30.11S
$$

NEZ041-046>049-061>064-073>077-083>087-250000-
SOUTH CENTRAL NEBRASKA

CITY           SKY/WX    TMP DP  RH WIND       PRES   REMARKS
GRAND ISLAND   SUNNY     86  63  45 NE13      30.05S
AURORA         SUNNY     84  63  49 E12G17    30.04F
HASTINGS       SUNNY     84  63  49 E10       30.05S
HEBRON         SUNNY     84  57  40 E10       30.03F
HOLDREGE       SUNNY     83  59  42 E15       30.05R
KEARNEY *      SUNNY     86  61  42 E14       30.07R
YORK           SUNNY     82  66  57 NE10      30.04F
$$

NEZ011>018-030>034-042>045-250000-
NORTHEAST NEBRASKA

CITY           SKY/WX    TMP DP  RH WIND       PRES   REMARKS
NORFOLK        MOSUNNY   83  59  44 N13       30.05S
ALBION         CLOUDY    81  62  51 NE6       30.06F
BLAIR          CLOUDY    84  67  56 CALM      30.03S
FREMONT        CLOUDY    85  65  50 N6        30.03S
TEKAMAH        SUNNY     86  67  52 NW10      30.01S
WAYNE          CLOUDY    77  66  68 N12       30.05S
$$

NEZ050>053-065>068-078-088>093-250000-
SOUTHEAST NEBRASKA

CITY           SKY/WX    TMP DP  RH WIND       PRES   REMARKS
LINCOLN        CLOUDY    86  67  52 NE13      30.03R
OMAHA EPPLEY   CLOUDY    84  68  58 N3        30.01S
BEATRICE       MOSUNNY   82  66  57 NE7       30.01S
FALLS CITY     CLOUDY    78  70  76 N7        29.99F
NEBRASKA CITY  LGT RAIN  76  66  71 NE21      30.02F
PLATTSMOUTH    CLOUDY    78  71  79 NE5       30.02F
$$

NEZ044-045-051>053-067-250000-
OMAHA AREA

CITY           SKY/WX    TMP DP  RH WIND       PRES   REMARKS
OMAHA EPPLEY   CLOUDY    84  68  58 N3        30.01S
BLAIR          CLOUDY    84  67  56 CALM      30.03S
FREMONT        CLOUDY    85  65  50 N6        30.03S
MILLARD        CLOUDY    83  64  53 CALM      30.02R
OFFUTT AFB     CLOUDY    82  70  66 N3        30.02R
PLATTSMOUTH    CLOUDY    78  71  79 NE5       30.02F
WAHOO          FAIR      85  66  54 NE6       30.02F
$$




USA.gov is the U.S. government's official web portal to all federal, state and local government web resources and services.